Flag for United Kingdom Weather past 2 weeks in Bournemouth, England, United Kingdom

Now
64 °F

Scattered clouds.


Feels Like: 64 °F
Forecast: 53 / 62 °F
Wind: 12 mph from North

Location: Bournemouth Airport

Current Time: Aug 30, 2015 at 7:44:35 PM

Latest Report: Aug 30, 2015 at 7:20 PM


Visibility: N/A

Pressure: 30.01 "Hg

Humidity: 83%

Dew point: 59 °F

Location of BournemouthLocation

Historic Weather in Bournemouth — Graph

°F

Bournemouth temperature yesterday

Maximum temperature yesterday: 70 °F (at 1:20 PM)
Minimum temperature yesterday: 57 °F (at 5:20 AM)
Average temperature yesterday: 63 °F

Past Weeks' High & Low Weather Summary

 TemperatureHumidityPressure
High77 °F (Aug 22, 11:50 AM)100% (Aug 16, 5:50 AM)30.15 "Hg (Aug 16, 5:50 AM)
Low41 °F (Aug 16, 5:50 AM)43% (Aug 16, 11:50 AM)29.42 "Hg (Aug 24, 8:20 AM)
Average61 °F82%29.90 "Hg
* Reported Aug 15 5:20 PM — Aug 30 5:50 PM, Bournemouth, Weather by CustomWeather, © 2015

Note: Actual official high and low records may vary slightly from our data, if they occured in-between our weather recording intervals... More about our weather records

Advertising

Bournemouth weather history for previous 24 hours

 ConditionsComfort  
Time TempWeatherWind HumidityBarometerVisibility
5:50 PM
Sun, Aug 30
66 °FPartly sunny.10 mph78%30.01 "HgN/A
5:20 PM66 °FScattered clouds.9 mph78%30.01 "HgN/A
4:50 PM66 °FScattered clouds.12 mph78%30.01 "HgN/A
4:20 PM66 °FScattered clouds.14 mph78%30.01 "HgN/A
3:50 PM66 °FBroken clouds.15 mph78%30.01 "HgN/A
3:20 PM66 °FBroken clouds.15 mph78%30.01 "HgN/A
2:50 PM66 °FPartly sunny.15 mph78%30.01 "HgN/A
2:20 PM68 °FPartly sunny.9 mph73%30.01 "HgN/A
1:50 PM70 °FPartly sunny.8 mph69%30.01 "HgN/A
1:20 PM70 °FBroken clouds.7 mph69%30.01 "HgN/A
12:50 PM70 °FScattered clouds.5 mph73%30.01 "HgN/A
12:20 PM70 °FPassing clouds.6 mph69%30.04 "HgN/A
11:50 AM68 °FPassing clouds.8 mph73%30.01 "HgN/A
11:20 AM68 °FPartly sunny.10 mph73%30.01 "HgN/A
10:50 AM66 °FPartly sunny.9 mph78%30.04 "HgN/A
10:20 AM64 °FPartly sunny.9 mph83%30.04 "HgN/A
9:50 AM63 °FPartly sunny.8 mph83%30.04 "HgN/A
9:20 AM63 °FSunny.8 mph88%30.04 "Hg10 mi
8:50 AM61 °FSunny.6 mph88%30.04 "Hg10 mi
8:20 AM59 °FSunny.8 mph94%30.04 "Hg10 mi
7:50 AM59 °FSunny.5 mph94%30.04 "Hg10 mi
7:20 AM59 °FSunny.5 mph94%30.04 "Hg10 mi
6:50 AM59 °FClear.3 mph94%30.04 "Hg10 mi
6:20 AM57 °FClear.3 mph94%30.04 "Hg10 mi
5:50 AM57 °FClear.3 mph94%30.04 "Hg10 mi
5:20 AM57 °FPassing clouds.5 mph94%30.04 "HgN/A
4:50 AM57 °FPassing clouds.6 mph94%30.04 "HgN/A
11:20 PM
Sat, Aug 29
59 °FPassing clouds.3 mph94%30.07 "HgN/A
10:20 PM59 °FLight rain. Passing clouds.5 mph94%30.07 "HgN/A
9:50 PM59 °FPassing clouds.5 mph94%30.07 "HgN/A
9:20 PM59 °FPassing clouds.1 mph94%30.07 "HgN/A
8:50 PM59 °FPassing clouds.1 mph94%30.07 "HgN/A
8:20 PM61 °FLight rain. Scattered clouds.2 mph88%30.07 "HgN/A
7:50 PM61 °FLight rain. Scattered clouds.No wind88%30.07 "HgN/A
7:20 PM61 °FLight rain. Partly sunny.2 mph88%30.07 "HgN/A
Weather by CustomWeather, © 2015

See weather overviewHow to use our weather pages